Find Starlink 34328

NORAD ID: 64220 Int'l Des: 2025-117 Owner: SPXS Country: US Constellation: starlink operational
LEOCIRCULAR

Current View

Loading 3D Globe...

About Starlink 34328

Description loading...

Upcoming Passes

Passes for default location (London). Set your location on the main map for personalized predictions.

Altitude History

Loading altitude history...

Two-Line Element Set

1 64220U 25117T 26151.03681804 .00058194 00000-0 19603-2 0 9993
2 64220 53.1610 17.0927 0001240 74.7051 285.4087 15.30221285 57138
Epoch: May 31, 2026 • Age: 16 hours

Current Status

Altitude 481.4 km
Velocity 7.62 km/s
Sub-Earth Point -22.06°S, 139.24°W
Launch Date May 31, 2025
Age 0.9 years
Type internet

Technical Details

Classification Payload
Mass 575.00 kg
Dry Mass 530.00 kg
Total Mass 575.00 kg
Length 0.30 m
Diameter 4.10 m
Span 29.00 m
Shape Box + pan
Manufacturer SPXS
Bus Type Starlink V2MO
Phase Status In Orbit
Owner/State SPXS/US

Most Searched